RH
18 18 18 17 18 18 21 21 19 17 14 12 12 11 11 13 16 30 29 28 33 32 29 23 22 20 17 20 23 25 23 20 20 22 26 28 26 23 22 21 21 22 24 26 27 30 35 37 41
19 20 20 20 22 24 24 18 18 18 17 15 12 12 11 15 18 21 23 25 28 29 30 27 26 23 20 20 24 25 24 21 21 23 26 28 27 25 24 24 24 25 24 24 27 30 34 40 45
21 21 22 23 24 25 25 22 20 21 21 17 15 14 15 17 18 20 19 19 20 19 26 32 33 27 24 23 25 26 25 22 21 23 26 28 27 27 26 25 27 27 26 26 27 30 37 40 43
24 24 23 24 24 22 22 24 23 21 21 20 18 19 20 21 20 21 18 16 19 20 25 32 32 31 28 25 27 27 26 23 23 24 25 27 26 26 27 28 29 28 28 28 30 33 36 39 42
28 27 28 26 23 22 23 27 30 27 23 20 19 20 23 23 24 24 21 19 20 22 29 33 31 31 30 27 28 30 28 25 24 24 25 26 26 27 27 28 29 31 32 32 32 35 36 37 39
31 30 31 30 26 24 24 27 31 28 25 22 23 24 25 25 25 25 24 23 22 23 28 33 37 33 32 30 28 30 29 26 25 26 27 27 27 27 28 28 29 31 35 36 36 35 35 37 39
32 33 33 31 29 26 27 28 27 27 26 25 24 27 29 28 28 27 26 25 24 22 24 31 38 40 36 34 31 32 31 28 27 27 27 27 27 28 29 30 31 30 33 38 40 41 40 37 39
34 33 34 33 32 31 29 29 26 25 25 26 27 29 30 29 28 27 26 26 26 27 25 26 32 40 40 38 34 34 33 33 30 27 27 26 27 28 29 30 31 32 35 38 41 40 43 42 38
36 36 37 36 34 32 29 28 28 28 28 30 29 30 30 30 28 27 26 27 28 28 26 26 29 36 42 40 39 37 37 36 33 30 28 27 27 27 27 29 33 34 36 37 40 39 41 46 43
35 38 37 36 34 32 30 30 31 32 31 31 32 32 31 31 30 31 31 31 29 28 27 29 35 40 44 44 42 41 41 40 38 34 31 28 27 27 28 29 32 34 37 38 38 40 43 44 46
31 32 33 35 34 31 28 30 32 34 33 32 31 31 32 33 35 35 33 34 32 31 29 30 36 45 45 49 47 47 43 43 42 39 35 32 30 30 30 30 31 34 35 39 38 39 39 41 43
26 24 25 26 26 28 26 26 28 26 23 23 24 25 26 27 29 32 29 28 29 29 28 29 32 45 51 52 59 54 50 49 47 45 41 37 33 32 32 32 31 33 36 37 38 38 38 35 37
22 23 21 21 20 21 21 20 20 17 18 16 16 16 17 20 23 25 25 24 23 25 28 30 28 30 41 54 63 72 64 61 59 55 48 44 39 36 35 34 34 34 37 40 40 39 39 36 35
18 19 20 20 21 22 20 19 16 16 15 15 15 14 17 18 18 17 19 20 22 22 25 29 32 37 40 45 68 73 78 76 74 67 58 51 43 39 39 39 37 36 42 40 41 41 42 37 33
18 18 19 21 22 21 19 16 16 17 17 16 16 17 18 19 20 18 18 18 19 20 23 26 28 26 29 34 45 64 77 83 89 89 72 58 50 43 42 43 42 40 41 43 43 43 44 45 45
18 19 20 22 22 22 21 19 19 19 19 17 19 21 23 27 24 22 22 20 19 19 22 22 24 26 23 22 28 37 56 70 83 95 89 76 64 56 49 47 46 45 51 45 47 44 43 44 47
21 26 24 25 26 23 22 20 19 21 21 21 22 24 29 33 26 23 23 22 22 22 25 26 24 26 27 22 23 27 34 51 75 80 89 88 91 80 66 55 52 52 54 48 52 49 47 44 45
25 27 28 29 30 27 27 24 24 26 24 26 28 35 35 38 34 30 27 25 25 26 28 29 27 24 24 23 22 23 28 37 50 73 78 89 88 85 87 66 60 63 61 51 53 53 52 49 45
27 30 31 29 31 34 31 26 27 28 27 30 34 36 38 42 39 35 31 31 29 29 29 28 29 28 26 23 20 19 20 26 37 43 62 75 78 85 90 69 70 73 72 56 52 53 53 52 52
35 37 36 32 36 39 33 28 28 29 32 38 38 42 44 45 44 40 36 34 32 32 34 32 29 26 27 28 24 22 19 18 24 35 43 57 64 71 66 74 84 78 72 64 58 51 52 53 56
39 39 37 35 35 32 29 23 25 22 31 45 45 47 49 49 48 46 42 41 42 39 38 37 35 33 31 31 30 27 25 22 19 23 31 41 52 63 74 79 89 74 79 61 62 55 53 56 57
36 40 38 35 33 35 29 39 30 29 39 51 55 54 53 54 54 54 52 49 45 43 43 41 39 39 36 34 33 33 30 27 23 20 24 29 40 48 57 71 74 71 89 70 61 58 53 61 58
29 33 34 35 35 38 23 49 43 40 56 57 55 56 59 62 62 61 59 57 55 52 48 45 41 38 38 38 38 37 35 34 30 25 20 24 32 39 44 54 62 82 86 85 78 65 57 66 68
30 31 34 37 41 48 31 52 58 67 64 61 60 63 66 62 62 60 57 56 54 50 45 42 39 38 39 38 39 40 40 37 35 32 26 21 22 35 40 41 51 60 78 83 76 82 76 72 85
33 41 54 59 59 56 46 56 80 68 68 69 74 71 68 65 65 61 58 55 52 49 46 43 44 43 43 42 43 43 41 41 40 37 33 28 22 20 35 44 47 46 55 66 74 77 88 98 92
37 48 64 75 65 55 46 55 78 68 65 71 71 74 74 73 69 66 63 55 51 50 50 51 50 51 50 50 49 48 46 43 41 39 38 33 29 23 18 36 47 50 53 49 62 75 86 97 95
48 51 54 63 61 61 47 64 77 73 76 76 77 75 76 74 69 68 61 58 61 62 61 62 64 62 63 64 60 58 54 49 42 39 37 38 34 27 23 20 25 44 40 43 57 61 72 84 92
48 51 60 69 73 68 55 63 87 91 94 95 90 84 80 77 74 72 71 74 73 73 75 81 80 80 80 80 74 70 69 63 54 46 39 38 38 36 31 25 20 20 32 34 42 61 75 83 85
56 55 59 64 66 73 74 66 66 72 76 83 85 82 80 80 75 76 79 79 86 90 93 94 93 94 93 92 90 83 74 67 60 53 51 52 50 52 45 37 32 25 22 34 32 42 73 94 93
54 57 60 73 62 57 62 71 73 72 82 86 87 83 82 84 83 86 88 93 96 96 96 97 97 96 97 96 93 87 80 74 69 69 72 76 70 70 58 52 46 34 31 28 35 27 31 79 89